Wind_Speed
7 7 7 6 5 4 4 4 4 4 5 5 5 5 5 4 4 5 5 5 6 6 6 6 6 6 6 6 5 5 4 4 4 5 5 4 4 4 5 5 6 6 6
6 6 6 6 5 4 3 3 3 3 3 4 4 4 4 4 4 5 5 5 6 6 6 6 7 7 6 6 5 5 4 4 4 5 5 4 4 5 5 5 6 6 6
6 6 5 5 5 4 3 3 3 3 3 3 4 4 4 4 4 4 5 6 6 6 6 7 7 7 6 6 5 5 4 4 4 4 4 4 4 6 6 6 6 6 6
6 6 5 5 4 4 3 3 2 2 2 3 3 3 4 4 4 4 5 6 7 7 6 6 6 6 6 5 5 5 5 5 4 4 4 5 6 7 7 7 6 6 6
5 5 5 5 5 4 3 3 2 2 1 2 2 2 3 3 4 4 5 5 7 7 6 6 6 6 5 5 5 5 5 4 4 4 4 5 6 6 7 7 6 6 6
5 5 5 5 4 4 3 3 2 2 1 1 2 2 3 3 4 4 5 6 7 7 7 7 6 6 6 6 6 6 5 4 4 4 4 6 6 6 6 6 6 5 5
6 5 4 4 4 3 3 3 2 2 2 1 2 2 3 3 4 5 5 6 7 6 7 7 7 6 6 5 6 6 6 5 5 5 6 6 6 6 5 4 5 5 4
7 6 5 4 4 3 3 3 3 2 2 1 2 2 2 3 4 4 5 6 7 6 6 6 7 6 6 6 6 6 6 6 6 7 6 5 6 6 5 5 5 4 4
8 7 7 5 4 3 3 2 3 2 2 1 1 2 2 3 3 4 4 5 5 5 5 6 6 6 6 6 6 6 6 7 7 7 6 6 6 5 5 4 5 4 4
9 8 7 6 5 3 2 2 2 2 2 1 1 2 2 2 2 3 3 4 5 5 6 6 6 6 6 7 7 6 6 7 6 6 6 6 6 6 6 5 5 5 4
10 9 8 6 5 3 2 1 1 1 2 1 1 2 2 1 2 3 3 4 5 5 5 6 6 6 7 7 7 6 6 6 6 6 6 6 6 6 6 5 5 4 4
11 10 9 8 6 4 3 2 1 1 1 0 0 1 1 2 3 3 4 4 5 5 6 6 6 7 7 7 6 6 6 6 6 5 6 5 6 6 6 5 4 3 3
12 11 10 9 6 4 3 2 1 1 1 1 0 1 1 2 3 4 4 5 5 5 6 6 6 7 6 6 6 6 6 6 6 6 5 5 5 5 4 4 3 3 2
11 11 11 10 7 4 4 3 2 2 2 1 1 0 1 1 2 3 5 5 5 5 5 5 6 6 5 5 5 5 5 5 5 5 4 4 4 4 3 3 2 2 2
11 12 11 9 7 6 5 4 3 2 2 2 2 1 1 1 2 2 4 4 4 5 5 5 5 4 4 4 4 4 4 4 4 4 4 3 3 2 2 2 2 1 1
12 11 11 10 8 6 5 4 3 3 3 3 3 2 2 2 2 2 3 3 3 4 5 5 4 4 4 3 3 3 3 3 4 4 3 3 2 2 1 1 0 0 1
12 12 12 10 9 8 6 4 3 3 3 3 3 3 2 2 2 2 3 4 3 3 4 3 3 3 3 2 2 2 2 2 2 2 2 2 1 1 1 1 1 2 2
13 13 12 11 9 8 6 5 3 3 3 3 3 3 3 3 3 3 3 4 3 3 3 3 2 2 1 1 1 1 1 1 1 1 0 0 1 1 2 2 3 3 4
15 14 13 12 10 8 6 5 4 3 3 3 3 3 3 3 3 3 4 5 4 3 3 3 2 2 2 1 1 0 0 0 1 1 1 2 2 3 3 4 4 5 6
15 15 14 13 11 8 7 5 3 3 3 3 3 3 4 4 4 4 4 5 4 3 3 3 3 3 3 2 2 2 2 2 2 3 3 3 4 4 5 5 6 6 7
16 15 15 14 12 10 8 5 3 2 3 4 3 4 4 4 5 4 5 6 5 5 4 4 5 4 4 4 3 3 3 4 4 4 5 5 5 6 6 7 8 9 10
17 16 15 14 13 11 8 6 4 2 3 3 4 4 4 5 5 5 6 6 6 6 6 6 6 6 6 5 5 5 5 5 6 6 7 7 7 8 8 9 10 11 12
18 17 16 15 13 11 9 7 6 4 3 3 4 4 5 5 6 6 6 7 8 8 8 8 8 8 8 8 7 7 7 7 8 8 8 9 9 10 10 11 11 12 13
18 17 16 15 13 11 9 7 6 5 4 4 4 4 4 5 5 6 7 7 8 9 9 9 10 10 9 9 9 9 10 10 10 10 11 11 12 11 12 13 13 13 14
17 17 16 15 13 12 9 8 7 6 5 5 5 5 6 6 6 6 7 8 9 9 10 10 11 11 11 11 11 11 11 12 12 12 12 13 13 13 14 15 15 15 16
17 16 16 15 13 12 10 9 8 7 6 5 5 5 6 7 7 7 8 9 9 10 10 11 11 11 12 12 12 13 13 13 14 14 14 15 15 15 16 16 16 17 18
Wind_Direction
67 66 61 61 62 66 76 88 100 102 106 112 116 112 104 99 96 98 98 105 109 112 114 111 108 113 112 111 109 107 113 118 111 109 111 109 107 110 112 113 112 111 108
55 57 55 52 54 60 64 72 86 96 102 107 107 107 107 108 105 103 101 105 116 113 106 103 104 107 110 113 113 109 107 108 107 113 116 113 111 116 117 118 118 113 110
47 50 48 45 47 50 49 53 69 80 94 104 109 111 110 104 108 106 106 106 111 112 106 98 99 103 107 111 112 109 107 109 116 120 120 116 120 122 120 120 121 114 109
43 43 43 41 38 35 34 39 52 64 81 96 109 111 106 99 105 104 106 105 102 103 104 98 97 100 105 109 109 108 106 109 113 123 117 121 121 120 122 124 118 112 109
43 41 41 42 36 29 23 23 27 35 65 91 101 103 105 102 101 102 101 100 95 94 96 93 97 95 96 104 106 111 111 112 115 123 119 124 121 117 121 124 119 115 112
41 39 37 36 34 29 21 16 18 28 45 68 76 90 103 103 98 104 103 98 93 90 88 93 97 92 91 95 101 105 106 108 111 112 125 126 120 119 121 123 122 119 115
40 35 33 30 26 18 13 9 12 23 34 55 84 93 101 104 101 100 99 98 97 94 94 92 91 91 92 96 100 103 103 100 104 109 120 115 116 121 119 122 125 125 117
35 32 32 27 22 12 10 11 14 28 42 61 86 95 92 107 99 98 99 96 94 90 91 95 90 92 99 101 103 105 102 99 105 111 113 114 117 122 119 118 121 121 116
31 29 26 22 23 15 12 12 19 29 41 80 109 105 102 103 100 99 101 102 96 93 92 95 91 93 99 99 103 105 104 103 108 108 104 108 116 120 117 114 115 115 110
24 22 19 14 12 16 18 14 20 33 36 54 102 111 116 113 105 106 109 112 107 101 99 97 88 94 98 102 102 105 106 105 106 107 103 104 108 112 113 115 111 109 104
22 20 14 13 15 21 10 0 8 30 41 49 75 114 111 116 120 117 114 118 113 104 105 100 95 93 99 103 101 101 107 106 109 104 105 103 106 112 113 112 110 106 100
25 21 14 8 7 5 352 332 345 353 28 14 32 106 114 127 138 133 123 118 114 107 105 101 101 101 99 98 96 95 103 105 108 105 105 103 105 110 112 111 110 105 98
19 19 17 9 6 352 334 325 291 264 281 311 338 27 61 131 142 139 130 126 117 113 107 104 106 105 99 99 96 98 101 103 101 106 104 101 105 114 118 112 104 102 95
20 18 14 9 9 357 325 314 287 265 276 273 290 346 93 115 128 134 136 132 124 119 117 116 112 107 104 103 100 98 102 103 103 104 105 101 103 103 112 117 108 99 91
16 16 10 7 4 357 339 315 285 263 262 260 269 246 219 166 147 147 143 136 130 128 127 127 124 117 108 106 106 103 104 108 112 111 109 103 102 98 100 112 106 100 67
13 10 8 5 0 351 343 330 289 263 270 270 271 255 243 225 195 177 172 159 149 144 141 135 131 124 116 114 107 102 109 113 117 114 110 102 90 85 82 95 88 31 349
13 11 7 2 358 350 343 329 302 276 260 269 277 266 247 229 218 211 193 179 168 158 156 150 147 133 128 122 109 90 92 105 120 122 112 105 85 64 36 314 287 291 296
11 6 4 1 357 353 347 334 298 266 262 273 276 270 249 237 226 214 213 184 175 174 175 175 176 171 160 150 130 94 90 98 120 145 163 323 323 313 307 302 298 292 290
7 3 2 359 354 353 351 341 307 258 255 262 272 275 260 250 232 215 201 193 198 198 204 208 212 222 235 237 238 262 211 234 262 265 293 295 297 300 295 294 299 298 292
4 3 2 360 356 354 349 344 332 265 248 247 263 264 260 251 235 225 214 212 216 217 217 224 233 247 248 250 258 266 269 283 286 282 289 292 296 296 294 294 295 297 296
8 5 4 2 358 356 355 356 353 294 263 250 259 260 259 248 236 232 230 231 231 233 237 243 245 251 252 259 266 271 278 284 287 287 289 291 291 290 291 292 291 292 293
6 4 2 1 357 358 355 353 344 315 283 269 265 259 255 248 240 244 240 237 240 245 247 250 252 256 256 260 266 270 273 279 283 287 288 291 288 287 287 289 290 292 291
2 1 359 359 357 353 353 350 345 332 298 275 265 259 257 250 246 248 247 247 249 252 253 255 257 259 261 262 265 268 270 272 278 286 288 286 285 286 289 291 289 289 289
1 0 360 358 359 354 348 345 340 322 293 274 267 263 265 258 254 254 255 256 258 258 257 257 259 260 262 266 269 271 273 275 277 283 285 285 286 285 290 293 292 291 292
359 359 358 357 358 358 351 346 340 329 311 294 281 270 268 266 263 262 262 261 263 267 264 263 263 263 263 266 270 274 276 278 279 281 284 285 286 288 289 288 288 290 291
357 355 355 357 357 357 355 350 348 339 323 309 294 281 274 268 264 266 269 270 269 270 269 267 267 266 264 266 270 274 275 278 281 281 283 285 287 288 289 289 289 290 290
Height
5886 5886 5886 5886 5886 5885 5885 5885 5885 5885 5884 5884 5884 5884 5884 5884 5884 5884 5884 5884 5884 5884 5884 5885 5885 5885 5886 5887 5888 5888 5889 5890 5890 5891 5892 5892 5893 5893 5894 5895 5895 5896 5896
5888 5887 5887 5887 5887 5887 5887 5887 5886 5886 5886 5886 5885 5885 5885 5885 5885 5885 5885 5885 5885 5885 5885 5886 5886 5887 5887 5888 5888 5889 5890 5890 5891 5891 5892 5893 5893 5894 5894 5895 5896 5897 5897
5889 5888 5888 5888 5888 5888 5888 5888 5887 5887 5887 5887 5887 5886 5886 5886 5886 5886 5886 5886 5886 5886 5887 5887 5887 5888 5888 5889 5889 5890 5891 5891 5891 5892 5893 5893 5894 5894 5895 5896 5897 5898 5899
5890 5890 5890 5889 5889 5889 5889 5889 5889 5889 5888 5888 5888 5888 5887 5887 5887 5887 5887 5887 5887 5887 5888 5888 5888 5889 5889 5890 5890 5891 5891 5892 5892 5893 5893 5894 5895 5895 5896 5897 5898 5899 5899
5891 5891 5891 5890 5890 5890 5890 5890 5890 5890 5889 5889 5889 5889 5888 5888 5888 5888 5888 5888 5888 5888 5889 5889 5889 5890 5890 5891 5891 5892 5892 5892 5893 5894 5894 5895 5896 5896 5897 5898 5899 5900 5900
5892 5892 5891 5891 5891 5891 5891 5891 5891 5891 5890 5890 5890 5890 5889 5889 5889 5889 5889 5889 5889 5890 5890 5890 5891 5891 5891 5892 5892 5893 5893 5893 5894 5894 5895 5896 5897 5897 5898 5899 5900 5901 5901
5893 5892 5892 5892 5892 5892 5892 5892 5891 5891 5891 5891 5891 5891 5891 5891 5891 5890 5890 5890 5891 5891 5891 5892 5892 5892 5892 5892 5893 5893 5894 5894 5894 5895 5896 5897 5897 5898 5899 5900 5900 5901 5902
5894 5894 5893 5893 5892 5892 5892 5892 5892 5892 5892 5892 5892 5892 5892 5892 5892 5892 5892 5892 5892 5892 5893 5893 5893 5893 5893 5893 5894 5894 5895 5895 5896 5896 5897 5898 5898 5899 5900 5900 5901 5902 5903
5896 5895 5894 5894 5893 5893 5893 5893 5893 5893 5893 5892 5892 5893 5893 5893 5893 5893 5893 5893 5893 5893 5893 5894 5894 5894 5894 5894 5895 5895 5896 5896 5897 5898 5898 5899 5899 5900 5900 5901 5902 5903 5904
5897 5896 5895 5895 5894 5893 5893 5893 5893 5893 5893 5893 5893 5893 5893 5893 5893 5894 5894 5894 5894 5894 5895 5895 5895 5895 5895 5895 5896 5896 5897 5898 5899 5899 5899 5900 5900 5901 5901 5902 5903 5904 5905
5897 5897 5896 5896 5895 5894 5894 5894 5894 5894 5894 5894 5894 5894 5894 5894 5894 5894 5895 5895 5895 5895 5896 5896 5896 5896 5896 5897 5897 5898 5898 5899 5900 5900 5900 5901 5901 5902 5902 5903 5904 5905 5905
5898 5897 5896 5896 5895 5894 5894 5894 5894 5894 5894 5894 5895 5895 5895 5895 5895 5895 5896 5896 5896 5896 5897 5897 5897 5898 5898 5898 5899 5899 5900 5900 5901 5901 5901 5902 5902 5903 5904 5904 5905 5906 5906
5900 5899 5898 5896 5896 5895 5895 5894 5895 5895 5895 5895 5895 5895 5895 5896 5896 5896 5896 5897 5897 5897 5898 5898 5899 5899 5900 5900 5900 5900 5901 5901 5902 5902 5902 5903 5903 5904 5904 5905 5906 5906 5907
5900 5899 5898 5897 5896 5895 5895 5894 5895 5895 5895 5895 5895 5896 5896 5896 5897 5897 5898 5898 5898 5898 5899 5899 5900 5900 5901 5901 5901 5901 5902 5902 5903 5903 5903 5904 5904 5905 5905 5906 5906 5906 5907
5901 5900 5899 5897 5896 5896 5895 5895 5895 5895 5896 5896 5896 5896 5896 5897 5897 5898 5898 5898 5899 5899 5900 5901 5901 5902 5902 5902 5902 5902 5903 5903 5903 5904 5904 5905 5905 5905 5906 5906 5906 5907 5907
5902 5900 5899 5898 5897 5896 5895 5895 5895 5895 5895 5896 5896 5896 5896 5897 5897 5898 5899 5900 5900 5900 5901 5902 5902 5902 5903 5903 5903 5903 5903 5904 5904 5905 5905 5905 5905 5906 5906 5906 5907 5907 5907
5903 5901 5899 5898 5897 5896 5895 5895 5895 5895 5895 5896 5896 5896 5896 5897 5897 5898 5899 5900 5901 5901 5902 5902 5903 5903 5903 5904 5904 5904 5904 5904 5904 5905 5905 5905 5906 5906 5906 5906 5907 5907 5907
5903 5902 5900 5898 5897 5896 5895 5894 5894 5895 5895 5895 5896 5896 5896 5897 5897 5898 5899 5900 5901 5901 5902 5903 5903 5904 5904 5904 5904 5904 5904 5905 5905 5905 5905 5906 5906 5906 5906 5906 5906 5906 5906
5904 5902 5900 5899 5897 5896 5895 5894 5894 5894 5895 5895 5896 5896 5896 5897 5897 5898 5899 5900 5900 5901 5902 5903 5903 5904 5904 5904 5904 5904 5904 5905 5905 5905 5905 5905 5905 5905 5905 5905 5905 5905 5905
5905 5903 5901 5899 5897 5896 5895 5894 5894 5894 5895 5895 5896 5896 5896 5897 5897 5898 5898 5899 5900 5901 5901 5902 5903 5903 5903 5904 5904 5904 5904 5904 5904 5904 5905 5905 5905 5905 5905 5905 5904 5904 5904
5906 5904 5902 5900 5898 5896 5895 5894 5894 5894 5894 5895 5895 5895 5896 5896 5897 5897 5898 5899 5900 5900 5901 5902 5902 5903 5903 5903 5903 5903 5904 5904 5904 5904 5904 5903 5903 5903 5903 5903 5903 5902 5902
5907 5904 5902 5900 5898 5897 5895 5894 5894 5894 5894 5894 5894 5895 5895 5896 5896 5897 5897 5898 5899 5900 5900 5900 5901 5901 5902 5902 5902 5902 5902 5903 5903 5902 5902 5902 5902 5902 5901 5901 5901 5900 5899
5907 5905 5903 5901 5899 5897 5896 5894 5894 5894 5894 5894 5894 5894 5894 5895 5895 5896 5896 5897 5898 5898 5899 5899 5899 5900 5900 5900 5900 5901 5901 5901 5901 5901 5900 5900 5900 5899 5899 5898 5898 5898 5897
5908 5905 5903 5901 5899 5897 5896 5895 5894 5894 5894 5894 5894 5894 5894 5894 5895 5895 5895 5896 5896 5897 5897 5897 5898 5898 5898 5898 5899 5899 5899 5898 5899 5898 5898 5897 5897 5896 5896 5896 5895 5895 5894
5908 5906 5903 5901 5899 5898 5896 5895 5894 5893 5893 5893 5893 5893 5893 5893 5893 5894 5894 5894 5895 5895 5895 5895 5895 5896 5896 5896 5896 5896 5896 5896 5896 5896 5895 5895 5894 5893 5893 5892 5891 5891 5890
5909 5906 5903 5901 5899 5898 5897 5895 5894 5893 5892 5892 5892 5892 5892 5892 5892 5892 5892 5893 5893 5893 5893 5893 5893 5893 5893 5894 5894 5894 5893 5893 5893 5892 5892 5891 5891 5890 5889 5889 5888 5887 5886